Погода в Лориньяне

Португалия     39°14′37″N   9°18′36″W
темп.,
°C
ветер,
м/с
пор.,
м/с
влажн.,
%
обл.,
%
осадки,
мм/ч
давл.,
гПа
погр.,
м
25 февраля, чт
чт2500:00+11ссз479864 1.6 1026321
03:00+10св2396100 8.0 1025142
06:00+10в1193100 9.5 102550
09:00+11вюв118336 0.0 102648
12:00+15ссв356718 0.0 10271076
15:00+14с68703 0.3 1026937
18:00+11с510862 0.3 1025576
21:00+11ссв4890100 0.0 1027404
26 февраля, пт
пт2600:00+9ссв2396100 0.0 1026110
03:00+10ссз1296100 2.1 102574
06:00+10св2395100 2.9 102573
09:00+11в2491100 0.0 1026176
12:00+15в2477100 0.0 1027408
15:00+17св2472100 0.4 1025777
18:00+13с2587100 0.9 1025153
21:00+12ссв239199 0.0 102667
27 февраля, сб
сб2700:00+11ссв229098 0.0 102643
03:00+11в228796 0.0 102525
06:00+10в238465 0.0 102437
09:00+13в4117422 0.0 1025409
12:00+17всв475954 0.0 1024614
15:00+18всв4755100 0.0 1022885
18:00+15св2272100 0.0 102246
21:00+11всв227590 0.0 102223
28 февраля, вс
вс2800:00+11всв227490 0.0 102130
03:00+9в237594 0.0 102048
06:00+9в4107489 0.0 1019224
09:00+11в5106958 0.0 1020326
12:00+16вюв476372 0.0 1020497
15:00+18вюв3557100 0.0 1017977
18:00+15вюв227493 0.0 101728
21:00+11всв228961 0.8 101924
1 марта, пн
пн100:00+10всв128876 0.9 101922
03:00+9в249070 0.0 101796
06:00+8в388951 0.0 1017161
09:00+11в48820 0.0 1018271
12:00+17вюв36646 0.0 1019509
15:00+19вюв23553 0.0 10181253
18:00+15с12772 0.0 101950
21:00+11ссв22840 0.0 102156